DO7CRZ-11 Weather Reports


time (UTC)temp
F
wind
direction
speed
knots
gust
knots
rain 1hr
in
rain 24hr
in
rain mn
in
humidity
%
barometer
mb
20260504192215 63 305 0.9 0.9 0.00 0.00 0.00 59 1013.1
20260504190210 64 305 0.9 1.7 0.00 0.00 0.00 57 1013.2
20260504185213 65 305 0.9 2.6 0.00 0.00 0.00 56 1013.0
20260504184206 66 305 0.0 0.9 0.00 0.00 0.00 55 1012.9
20260504183212 67 305 0.9 2.6 0.00 0.00 0.00 54 1012.9
20260504182218 68 305 0.0 0.9 0.00 0.00 0.00 52 1012.9
20260504181218 69 305 0.9 2.6 0.00 0.00 0.00 51 1012.8
20260504180210 69 311 2.6 5.2 0.00 0.00 0.00 51 1012.8
20260504175213 70 310 2.6 6.1 0.00 0.00 0.00 50 1012.7
20260504174206 71 315 2.6 7.0 0.00 0.00 0.00 49 1012.7
20260504173215 72 354 0.9 1.7 0.00 0.00 0.00 47 1012.6
20260504172214 73 355 0.0 0.9 0.00 0.00 0.00 47 1012.5
20260504170211 73 355 0.9 1.7 0.00 0.00 0.00 45 1012.6
20260504150216 77 209 1.7 3.5 0.00 0.00 0.00 38 1012.8
20260504140221 78 219 1.7 7.0 0.00 0.00 0.00 37 1013.1
20260504130217 78 289 2.6 7.0 0.00 0.00 0.00 37 1013.5
20260504120215 78 224 3.5 8.7 0.00 0.00 0.00 36 1013.7
20260504110206 75 273 0.9 2.6 0.00 0.00 0.00 39 1014.1
20260504100210 75 292 2.6 5.2 0.00 0.00 0.00 39 1014.7
20260504081215 71 257 5.2 8.7 0.00 0.00 0.00 42 1014.7
20260504080208 71 279 3.5 7.0 0.00 0.00 0.00 43 1014.7
20260504070209 67 202 2.6 3.5 0.00 0.00 0.00 46 1014.4
20260504045213 59 0.0 0.0 0.00 0.00 0.00 53 1013.7
20260504044211 60 197 0.9 3.5 0.00 0.00 0.00 53 1013.7
20260504043210 60 300 2.6 7.0 0.00 0.00 0.00 52 1013.9
20260504042213 60 259 2.6 6.1 0.00 0.00 0.00 51 1013.9
20260504041206 60 250 4.3 7.0 0.00 0.00 0.00 52 1013.9
20260504040209 60 259 4.3 7.8 0.00 0.00 0.00 52 1013.8
20260504035212 60 256 4.3 7.8 0.00 0.00 0.00 52 1013.9
20260504034216 60 245 2.6 7.8 0.00 0.00 0.00 51 1013.9
20260504032212 60 258 4.3 7.8 0.00 0.00 0.00 50 1013.8
20260504031206 61 238 3.5 8.7 0.00 0.00 0.00 50 1013.8
20260504030209 61 235 3.5 8.7 0.00 0.00 0.00 50 1013.7
20260504025212 61 256 3.5 7.0 0.00 0.00 0.00 49 1013.7
20260504024215 61 247 3.5 7.0 0.00 0.00 0.00 49 1013.8
20260504023208 61 240 3.5 7.0 0.00 0.00 0.00 49 1013.6
20260504022214 61 241 3.5 7.0 0.00 0.00 0.00 48 1013.5
20260504021216 62 263 4.3 7.8 0.00 0.00 0.00 48 1013.5
20260504020208 62 242 4.3 9.6 0.00 0.00 0.00 48 1013.6
20260504015211 62 256 3.5 8.7 0.00 0.00 0.00 47 1013.5
20260504014214 63 257 5.2 11.3 0.00 0.00 0.00 46 1013.5
20260504013208 63 259 6.1 19.1 0.00 0.00 0.00 46 1013.4
20260504012201 64 209 6.1 15.6 0.00 0.00 0.00 45 1013.1
20260504005209 64 236 3.5 8.7 0.00 0.00 0.00 44 1013.2
20260504004212 64 240 6.1 14.8 0.00 0.00 0.00 44 1013.1
20260504003215 64 253 4.3 8.7 0.00 0.00 0.00 44 1013.0
20260504002208 64 257 6.1 13.9 0.00 0.00 0.00 44 1012.9
20260504001211 64 233 3.5 11.3 0.00 0.00 0.00 44 1012.4
20260504000219 64 206 5.2 12.2 0.00 0.00 0.00 44 1012.3
20260503234213 65 205 6.1 14.8 0.00 0.00 0.00 43 1012.5
20260503233217 65 204 6.1 12.2 0.00 0.00 0.00 43 1012.3
20260503232207 65 201 5.2 15.6 0.00 0.00 0.00 42 1012.4
20260503231211 66 209 6.1 13.9 0.00 0.00 0.00 42 1012.3
20260503230214 66 203 7.8 20.0 0.00 0.00 0.00 42 1012.4
20260503225207 66 201 6.1 16.5 0.00 0.00 0.00 42 1012.3
20260503224210 66 186 6.1 13.9 0.00 0.00 0.00 42 1012.6
20260503223213 66 189 6.1 12.2 0.00 0.00 0.00 42 1012.6
20260503221212 66 184 6.1 13.9 0.00 0.00 0.00 43 1012.6
20260503220213 66 184 5.2 18.2 0.00 0.00 0.00 42 1012.8
20260503215212 66 186 4.3 15.6 0.00 0.00 0.00 42 1012.8
20260503214210 66 192 5.2 11.3 0.00 0.00 0.00 42 1012.8
20260503213217 66 177 5.2 12.2 0.00 0.00 0.00 42 1012.8
20260503212216 66 201 4.3 12.2 0.00 0.00 0.00 42 1012.9
20260503211211 66 180 3.5 9.6 0.00 0.00 0.00 42 1012.9
20260503210212 66 171 5.2 8.7 0.00 0.00 0.00 42 1013.0
20260503205215 66 184 4.3 13.0 0.00 0.00 0.00 42 1013.0
20260503204209 65 188 3.5 7.0 0.00 0.00 0.00 42 1012.9
20260503203215 66 184 3.5 8.7 0.00 0.00 0.00 42 1013.0
20260503202216 65 172 3.5 7.0 0.00 0.00 0.00 42 1013.0
20260503201209 65 206 3.5 7.8 0.00 0.00 0.00 42 1013.1
20260503200212 65 182 4.3 11.3 0.00 0.00 0.00 42 1013.3
20260503195214 65 185 2.6 7.0 0.00 0.00 0.00 41 1013.3
20260503194207 65 180 3.5 7.8 0.00 0.00 0.00 41 1013.2
20260503193210 65 190 2.6 6.1 0.00 0.00 0.00 41 1013.4